Weather History for Rionegro, Colombia

Change the Weather History Date:

Monday, April 29, 2013

  Actual Average Record
Temperature  
Mean Temperature 62 °F -  
Max Temperature 68 °F 69 °F 74 °F (2014)
Min Temperature 57 °F 54 °F 53 °F (1997)
Degree Days  
Heating Degree Days 2    
Growing Degree Days 12 (Base 50)    
Moisture  
Dew Point 58 °F    
Average Humidity 88    
Maximum Humidity 100    
Minimum Humidity 71    
Precipitation  
Precipitation 0.03 in - - ()
Sea Level Pressure  
Sea Level Pressure 30.26 in    
Wind  
Wind Speed 2 mph ()    
Max Wind Speed 9 mph    
Max Gust Speed -    
Visibility 4.9 miles    
Events Fog , Rain    
Averages and records for this station are not official NWS values.
T = Trace of Precipitation, MM = Missing Value Source: Averaged Metar Reports

Daily Weather History Graph

Daily Weather History Graph

Search for Another Location

Airport:

Trip Planner

Search our weather history database for the weather conditions in past years. The results will help you decide how hot, cold, wet, or windy it might be!

Date:

Astronomy

Apr. 29, 2013 Rise Set
Actual Time 5:49 AM COT 6:08 PM COT
Civil Twilight 5:27 AM COT 6:30 PM COT
Nautical Twilight 5:02 AM COT 6:55 PM COT
Astronomical Twilight 4:37 AM COT 7:20 PM COT
Moon 10:15 PM COT (4/29) 9:26 AM COT (4/29)
Length of Visible Light 13h 02m
Length of Day
12h 19m
Waning Gibbous, 80% of the Moon is Illuminated
Apr 29
Waning Gibbous
May 2
Last Quarter
May 9
New
May 17
First Quarter
May 24
Full

Hourly Weather History & Observations

Time (COT) Temp. Dew Point Humidity Pressure Visibility Wind Dir Wind Speed Gust Speed Precip Events Conditions
12:00 AM 59.0 °F 57.2 °F 94% 30.26 in 6.2 mi Calm Calm - N/A   Mostly Cloudy
1:00 AM 59 °F 56 °F 88%  in 5 mi Calm Calm - - Fog Light Fog
1:00 AM 59.0 °F 57.2 °F 94% 30.25 in 5.0 mi Calm Calm - N/A Fog Fog
2:00 AM 59.0 °F 57.2 °F 94% 30.24 in 5.0 mi Calm Calm - N/A Fog Fog
3:00 AM 59.0 °F 57.2 °F 94% 30.23 in 4.3 mi Calm Calm - N/A Fog Fog
4:00 AM 58 °F 56 °F 92%  in 5 mi NE 6.7 mph - - Fog Light Fog
4:00 AM 59.0 °F 57.2 °F 94% 30.22 in 5.0 mi NE 6.9 mph - N/A Fog Fog
5:00 AM 59.0 °F 57.2 °F 94% 30.23 in 5.6 mi North 6.9 mph - N/A   Scattered Clouds
5:30 AM 59.0 °F 57.2 °F 94% 30.24 in 5.6 mi North 5.8 mph - N/A   Scattered Clouds
6:00 AM 59.0 °F 57.2 °F 94% 30.25 in 3.7 mi WNW 3.5 mph - N/A Fog Fog
7:00 AM 59 °F 57 °F 89%  in 4 mi West 2.2 mph - - Fog Light Fog
7:00 AM 59.0 °F 57.2 °F 94% 30.25 in 3.7 mi Variable 2.3 mph - N/A Fog Fog
8:00 AM 60.8 °F 57.2 °F 88% 30.28 in 6.2 mi ENE 4.6 mph - N/A   Mostly Cloudy
9:00 AM 62.6 °F 57.2 °F 82% 30.29 in 6.2 mi East 4.6 mph - N/A   Mostly Cloudy
10:00 AM 64 °F 57 °F 71%  in 9 mi East 4.5 mph - -   Haze
10:00 AM 64.4 °F 57.2 °F 77% 30.31 in 6.2 mi East 4.6 mph - N/A   Scattered Clouds
11:00 AM 64.4 °F 57.2 °F 77% 30.29 in 6.2 mi NE 6.9 mph - N/A   Scattered Clouds
12:00 PM 66.2 °F 57.2 °F 73% 30.28 in 6.2 mi NE 4.6 mph - N/A   Scattered Clouds
1:00 PM 65 °F 59 °F 75%  in 7 mi Calm Calm - - Rain Light Drizzle
1:00 PM 64.4 °F 59.0 °F 83% 30.26 in 6.2 mi Calm Calm - N/A   Light Drizzle
2:00 PM 66.2 °F 59.0 °F 78% 30.23 in 6.2 mi East 6.9 mph - N/A   Scattered Clouds
3:00 PM 64.4 °F 59.0 °F 83% 30.21 in 5.0 mi NNE 9.2 mph - N/A   Mostly Cloudy
4:00 PM 64 °F 59 °F 80%  in 4 mi Calm Calm - -   Overcast
4:00 PM 64.4 °F 59.0 °F 83% 30.21 in 4.3 mi Calm Calm - N/A   Mostly Cloudy
5:00 PM 62.6 °F 59.0 °F 88% 30.20 in 4.3 mi Calm Calm - N/A   Mostly Cloudy
6:00 PM 62.6 °F 59.0 °F 88% 30.22 in 3.7 mi Calm Calm - N/A   Light Drizzle
7:00 PM 62 °F 59 °F 85%  in 4 mi Calm Calm - - Rain Light Drizzle
7:00 PM 60.8 °F 59.0 °F 94% 30.26 in 3.7 mi Calm Calm - N/A   Light Drizzle
8:00 PM 60.8 °F 59.0 °F 94% 30.28 in 3.7 mi Calm Calm - N/A Fog Fog
9:00 PM 60.8 °F 59.0 °F 94% 30.30 in 2.5 mi Calm Calm - N/A   Mostly Cloudy
10:00 PM 60 °F 59 °F 95%  in 3 mi Calm Calm - -   Mist
10:00 PM 60.8 °F 59.0 °F 94% 30.30 in 3.1 mi Calm Calm - N/A   Mostly Cloudy
11:00 PM 59.0 °F 59.0 °F 100% 30.30 in 4.3 mi Calm Calm - N/A   Light Drizzle